Вернуться в каталог

DELTA 1 DEB

АктивенLEO
NORAD 10201·DEBRIS·🇺🇸 United States

Запущен Jul 14, 1977 с Cape Canaveral Space Force Station

Loading…

Ближайшие Пролёты (ближайшие 24 часа)

TLE

СвежийSource: Space-Track

Эпоха: Sep 14, 2026, 08:48 UTC

1 10201U 77065AE  26257.36721096  .00000866  00000-0  14000-3 0  9993
2 10201  29.0875 259.3109 0663245 192.2480 166.1211 13.75407735421151

Отслеживайте DELTA 1 DEB в реальном времени с AllMySat

Download on the App Store